Toronto Pearson, Ontario

7:33 AM EST on November 18, 2017 (GMT -0500)
Toronto-Pearson International

Weather History for CYYZ - January, 2013

Change the Weather History Date:

Wednesday, January 23, 2013

  Actual Average Record
Temperature  
Mean Temperature 4 °F -  
Max Temperature 14 °F 29 °F 48 °F (1999)
Min Temperature -5 °F 13 °F -5 °F (2005)
Degree Days  
Heating Degree Days 60    
Moisture  
Dew Point -4 °F    
Average Humidity 64    
Maximum Humidity 85    
Minimum Humidity 46    
Precipitation  
Precipitation 0.00 in 0.06 in - ()
Sea Level Pressure  
Sea Level Pressure 30.20 in    
Wind  
Wind Speed 6 mph ()    
Max Wind Speed 15 mph    
Max Gust Speed 20 mph    
Visibility 14.5 miles    
Events Snow    
Averages and records for this station are not official NWS values.
T = Trace of Precipitation, MM = Missing Value Source: Averaged Metar Reports

Daily Weather History Graph

Daily Weather History Graph

Search for Another Location

Airport or City:

Trip Planner

Search our weather history database for the weather conditions in past years. The results will help you decide how hot, cold, wet, or windy it might be!

Date:

Astronomy

Jan. 23, 2013 Rise Set
Actual Time 7:43 AM EST 5:17 PM EST
Civil Twilight 7:12 AM EST 5:49 PM EST
Nautical Twilight 6:37 AM EST 6:24 PM EST
Astronomical Twilight 6:03 AM EST 6:58 PM EST
Moon 2:25 PM EST (1/23) 4:55 AM EST (1/23)
Length of Visible Light 10h 36m
Length of Day
9h 34m
Waxing Gibbous, 89% of the Moon is Illuminated
Jan 23
Waxing Gibbous
Jan 26
Full
Feb 3
Last Quarter
Feb 10
New
Feb 17
First Quarter

Hourly Weather History & Observations

Time (EST) Temp. Windchill Dew Point Humidity Pressure Visibility Wind Dir Wind Speed Gust Speed Precip Events Conditions
12:00 AM 3.2 °F -7.8 °F -2.2 °F 78% 30.21 in 15.0 mi NW 5.8 mph - N/A   Mostly Cloudy
1:00 AM 3 °F - -4 °F 61% 30.21 in 9 mi North 6.9 mph - - Snow Snow Grains
1:00 AM 3.2 °F -9.1 °F -4.0 °F 72% 30.21 in 9.0 mi North 6.9 mph - N/A Snow Light Snow Grains
2:00 AM 3.2 °F -9.1 °F -2.2 °F 78% 30.22 in 12.0 mi North 6.9 mph - N/A Snow Light Snow Grains
2:55 AM -0.4 °F -16.7 °F - N/A% - 15.0 mi North 10.4 mph - N/A   Mostly Cloudy
3:00 AM -0.4 °F -16.7 °F -4.0 °F 85% 30.24 in 15.0 mi North 10.4 mph - N/A   Mostly Cloudy
4:00 AM -2.2 °F -18.0 °F -11.2 °F 66% 30.24 in 15.0 mi North 9.2 mph - N/A   Scattered Clouds
5:00 AM -4.0 °F -21.2 °F -14.8 °F 60% 30.25 in 15.0 mi NNW 10.4 mph - N/A   Clear
6:00 AM -4.0 °F -17.8 °F -14.8 °F 60% 30.25 in 15.0 mi NNW 6.9 mph - N/A   Partly Cloudy
7:00 AM -5 °F - -15 °F 46% 30.25 in 15 mi North 4.6 mph - -   Partly Cloudy
7:00 AM -5.8 °F -16.7 °F -14.8 °F 65% 30.25 in 15.0 mi North 4.6 mph - N/A   Partly Cloudy
8:00 AM -5.8 °F -14.5 °F -14.8 °F 65% 30.26 in 15.0 mi NW 3.5 mph - N/A   Mostly Cloudy
9:00 AM -2.2 °F - -14.8 °F 55% 30.27 in 15.0 mi NNW 2.3 mph - N/A   Mostly Cloudy
10:00 AM -0.4 °F -10.4 °F -11.2 °F 60% 30.26 in 15.0 mi NNE 4.6 mph - N/A   Mostly Cloudy
11:00 AM 3.2 °F -4.2 °F -5.8 °F 66% 30.25 in 15.0 mi SSE 3.5 mph - N/A   Mostly Cloudy
12:00 PM 6.8 °F -0.1 °F -2.2 °F 67% 30.22 in 15.0 mi WSW 3.5 mph - N/A   Mostly Cloudy
1:00 PM 9 °F - 1 °F 58% 30.18 in 15 mi WSW 3.5 mph - -   Scattered Clouds
1:00 PM 8.6 °F 0.1 °F 1.4 °F 73% 30.18 in 15.0 mi WSW 4.6 mph - N/A   Mostly Cloudy
2:00 PM 14.0 °F -1.4 °F 5.0 °F 67% 30.17 in 15.0 mi WSW 15.0 mph - N/A   Mostly Cloudy
3:00 PM 14.0 °F -0.8 °F 3.2 °F 62% 30.16 in 15.0 mi West 13.8 mph 19.6 mph N/A   Mostly Cloudy
4:00 PM 14.0 °F -0.2 °F 5.0 °F 67% 30.16 in 15.0 mi WSW 12.7 mph - N/A   Mostly Cloudy
5:00 PM 12.2 °F -3.1 °F 3.2 °F 67% 30.15 in 15.0 mi WSW 13.8 mph - N/A   Mostly Cloudy
6:00 PM 10.4 °F -1.5 °F 1.4 °F 67% 30.15 in 15.0 mi WSW 8.1 mph - N/A   Mostly Cloudy
7:00 PM 10 °F - -1 °F 48% 30.15 in 15 mi WSW 6.9 mph - -   Mostly Cloudy
7:00 PM 10.4 °F -0.4 °F -0.4 °F 62% 30.15 in 15.0 mi WSW 6.9 mph - N/A   Mostly Cloudy
8:00 PM 10.4 °F 0.8 °F -2.2 °F 57% 30.14 in 15.0 mi WSW 5.8 mph - N/A   Mostly Cloudy
9:00 PM 10.4 °F - -2.2 °F 57% 30.13 in 15.0 mi West 2.3 mph - N/A   Mostly Cloudy
10:00 PM 10.4 °F - -2.2 °F 57% 30.12 in 15.0 mi West 2.3 mph - N/A   Mostly Cloudy
11:00 PM 10.4 °F - -0.4 °F 62% 30.12 in 15.0 mi Calm Calm - N/A   Overcast